Time,TemperatureF,DewpointF,PressureIn,WindDirection,WindDirectionDegrees,WindSpeedMPH,WindSpeedGustMPH,Humidity,HourlyPrecipIn,Conditions,Clouds,dailyrainin,SoftwareType,DateUTC
2013-10-03 00:15:00,65.8,56.5,29.87,WNW,292,2.7,-999.0,72,-99.99,,,0.00,Acu-Link.com,2013-10-03 04:15:00,
2013-10-03 00:30:00,66.2,55.3,29.87,WNW,292,2.2,-999.0,68,-99.99,,,0.00,Acu-Link.com,2013-10-03 04:30:00,
2013-10-03 00:45:00,66.2,55.3,29.88,West,270,4.2,-999.0,68,-99.99,,,0.00,Acu-Link.com,2013-10-03 04:45:00,
2013-10-03 01:01:00,65.8,54.9,29.88,WNW,292,3.7,-999.0,68,-99.99,,,0.00,Acu-Link.com,2013-10-03 05:01:00,
2013-10-03 01:17:00,65.8,53.3,29.88,West,270,1.1,-999.0,64,-99.99,,,0.00,Acu-Link.com,2013-10-03 05:17:00,
2013-10-03 01:32:00,65.8,53.7,29.88,NW,315,3.7,-999.0,65,-99.99,,,0.00,Acu-Link.com,2013-10-03 05:32:00,
2013-10-03 01:47:00,65.7,52.8,29.88,NNE,22,1.1,-999.0,63,-99.99,,,0.00,Acu-Link.com,2013-10-03 05:47:00,
2013-10-03 02:02:00,65.7,52.3,29.89,WNW,292,5.3,-999.0,62,-99.99,,,0.00,Acu-Link.com,2013-10-03 06:02:00,
2013-10-03 02:17:00,65.7,50.0,29.89,WNW,292,3.7,-999.0,57,-99.99,,,0.00,Acu-Link.com,2013-10-03 06:17:00,
2013-10-03 02:32:00,65.7,50.5,29.88,WNW,292,1.1,-999.0,58,-99.99,,,0.00,Acu-Link.com,2013-10-03 06:32:00,
2013-10-03 02:48:00,65.7,50.0,29.89,West,270,1.1,-999.0,57,-99.99,,,0.00,Acu-Link.com,2013-10-03 06:48:00,
2013-10-03 03:03:00,65.3,50.6,29.89,ESE,112,0.0,-999.0,59,-99.99,,,0.00,Acu-Link.com,2013-10-03 07:03:00,
2013-10-03 03:18:00,63.9,49.7,29.91,NNW,337,3.7,-999.0,60,-99.99,,,0.00,Acu-Link.com,2013-10-03 07:18:00,
2013-10-03 03:33:00,63.5,50.7,29.90,NW,315,1.7,-999.0,63,-99.99,,,0.00,Acu-Link.com,2013-10-03 07:33:00,
2013-10-03 03:49:00,63.7,50.9,29.92,WNW,292,2.2,-999.0,63,-99.99,,,0.00,Acu-Link.com,2013-10-03 07:49:00,
2013-10-03 04:06:00,63.7,51.3,29.92,NW,315,0.0,-999.0,64,-99.99,,,0.00,Acu-Link.com,2013-10-03 08:06:00,
2013-10-03 04:21:00,63.5,52.7,29.92,WNW,292,0.0,-999.0,68,-99.99,,,0.00,Acu-Link.com,2013-10-03 08:21:00,
2013-10-03 04:36:00,63.1,52.8,29.92,WNW,292,1.7,-999.0,69,-99.99,,,0.00,Acu-Link.com,2013-10-03 08:36:00,
2013-10-03 04:51:00,63.0,53.1,29.92,WNW,292,1.7,-999.0,70,-99.99,,,0.00,Acu-Link.com,2013-10-03 08:51:00,
2013-10-03 05:06:00,62.1,55.2,29.92,NW,315,0.0,-999.0,78,-99.99,,,0.00,Acu-Link.com,2013-10-03 09:06:00,
2013-10-03 05:22:00,60.4,54.9,29.92,NNW,337,0.0,-999.0,82,-99.99,,,0.00,Acu-Link.com,2013-10-03 09:22:00,
2013-10-03 05:37:00,53.1,52.5,29.96,North,0,0.0,-999.0,98,-99.99,,,0.00,Acu-Link.com,2013-10-03 09:37:00,
2013-10-03 05:52:00,52.7,52.2,29.96,East,90,0.0,-999.0,98,-99.99,,,0.00,Acu-Link.com,2013-10-03 09:52:00,
2013-10-03 06:07:00,51.6,51.1,29.97,WNW,292,0.0,-999.0,98,-99.99,,,0.00,Acu-Link.com,2013-10-03 10:07:00,
2013-10-03 06:22:00,51.1,50.6,29.97,WNW,292,0.0,-999.0,98,-99.99,,,0.00,Acu-Link.com,2013-10-03 10:22:00,
2013-10-03 06:37:00,50.7,50.2,29.99,NNE,22,0.0,-999.0,98,-99.99,,,0.00,Acu-Link.com,2013-10-03 10:37:00,
2013-10-03 06:53:00,50.2,49.7,29.99,NNE,22,0.0,-999.0,98,-99.99,,,0.00,Acu-Link.com,2013-10-03 10:53:00,
2013-10-03 07:08:00,49.5,49.0,30.00,NNE,22,0.0,-999.0,98,-99.99,,,0.00,Acu-Link.com,2013-10-03 11:08:00,
2013-10-03 07:23:00,49.3,48.8,30.00,NNE,22,0.0,-999.0,98,-99.99,,,0.00,Acu-Link.com,2013-10-03 11:23:00,
2013-10-03 07:39:00,49.5,49.0,30.01,NNE,22,0.0,-999.0,98,-99.99,,,0.00,Acu-Link.com,2013-10-03 11:39:00,
2013-10-03 07:54:00,49.8,49.3,30.02,ESE,112,0.0,-999.0,98,-99.99,,,0.00,Acu-Link.com,2013-10-03 11:54:00,
2013-10-03 08:09:00,50.5,50.0,30.02,ESE,112,0.0,-999.0,98,-99.99,,,0.00,Acu-Link.com,2013-10-03 12:09:00,
2013-10-03 08:24:00,51.3,50.8,30.03,ESE,112,0.0,-999.0,98,-99.99,,,0.00,Acu-Link.com,2013-10-03 12:24:00,
2013-10-03 08:39:00,52.9,52.4,30.03,ESE,112,0.0,-999.0,98,-99.99,,,0.00,Acu-Link.com,2013-10-03 12:39:00,
2013-10-03 08:55:00,55.4,54.8,30.02,East,90,0.0,-999.0,98,-99.99,,,0.00,Acu-Link.com,2013-10-03 12:55:00,
2013-10-03 09:10:00,57.9,57.3,30.03,East,90,0.0,-999.0,98,-99.99,,,0.00,Acu-Link.com,2013-10-03 13:10:00,
2013-10-03 09:25:00,59.7,59.1,30.03,SW,225,0.0,-999.0,98,-99.99,,,0.00,Acu-Link.com,2013-10-03 13:25:00,
2013-10-03 09:40:00,61.3,60.7,30.03,East,90,0.0,-999.0,98,-99.99,,,0.00,Acu-Link.com,2013-10-03 13:40:00,
2013-10-03 09:55:00,62.6,62.0,30.03,SW,225,0.0,-999.0,98,-99.99,,,0.00,Acu-Link.com,2013-10-03 13:55:00,
2013-10-03 10:11:00,65.3,64.7,30.03,South,180,0.0,-999.0,98,-99.99,,,0.00,Acu-Link.com,2013-10-03 14:11:00,
2013-10-03 10:26:00,67.5,64.1,30.02,ESE,112,1.7,-999.0,89,-99.99,,,0.00,Acu-Link.com,2013-10-03 14:26:00,
2013-10-03 10:41:00,68.5,56.3,30.02,NE,45,1.7,-999.0,65,-99.99,,,0.00,Acu-Link.com,2013-10-03 14:41:00,
2013-10-03 10:56:00,69.6,59.4,30.02,NE,45,0.0,-999.0,70,-99.99,,,0.00,Acu-Link.com,2013-10-03 14:56:00,
2013-10-03 11:12:00,71.8,56.7,30.02,ENE,67,0.0,-999.0,59,-99.99,,,0.00,Acu-Link.com,2013-10-03 15:12:00,
2013-10-03 11:27:00,70.9,56.3,30.02,WNW,292,2.2,-999.0,60,-99.99,,,0.00,Acu-Link.com,2013-10-03 15:27:00,
2013-10-03 11:42:00,72.0,56.9,30.01,NNE,22,1.7,-999.0,59,-99.99,,,0.00,Acu-Link.com,2013-10-03 15:42:00,
2013-10-03 11:57:00,72.1,56.0,30.00,ESE,112,1.1,-999.0,57,-99.99,,,0.00,Acu-Link.com,2013-10-03 15:57:00,
2013-10-03 12:12:00,72.7,56.6,30.01,SSE,157,1.1,-999.0,57,-99.99,,,0.00,Acu-Link.com,2013-10-03 16:12:00,
2013-10-03 12:28:00,72.9,56.3,30.01,NW,315,4.2,-999.0,56,-99.99,,,0.00,Acu-Link.com,2013-10-03 16:28:00,
2013-10-03 12:43:00,72.0,56.9,30.00,WSW,247,2.2,-999.0,59,-99.99,,,0.00,Acu-Link.com,2013-10-03 16:43:00,
2013-10-03 12:58:00,71.8,55.7,30.00,WNW,292,3.7,-999.0,57,-99.99,,,0.00,Acu-Link.com,2013-10-03 16:58:00,
2013-10-03 13:13:00,71.8,56.2,29.99,NNW,337,2.2,-999.0,58,-99.99,,,0.00,Acu-Link.com,2013-10-03 17:13:00,
2013-10-03 13:29:00,72.0,54.9,29.98,West,270,2.7,-999.0,55,-99.99,,,0.00,Acu-Link.com,2013-10-03 17:29:00,
2013-10-03 13:44:00,71.6,55.1,29.98,WNW,292,3.2,-999.0,56,-99.99,,,0.00,Acu-Link.com,2013-10-03 17:44:00,
2013-10-03 13:59:00,71.1,55.1,29.98,WNW,292,2.7,-999.0,57,-99.99,,,0.00,Acu-Link.com,2013-10-03 17:59:00,
2013-10-03 14:15:00,71.1,55.6,29.97,West,270,3.7,-999.0,58,-99.99,,,0.00,Acu-Link.com,2013-10-03 18:15:00,
2013-10-03 14:30:00,71.4,54.9,29.97,WNW,292,4.2,-999.0,56,-99.99,,,0.00,Acu-Link.com,2013-10-03 18:30:00,
2013-10-03 14:45:00,70.9,54.9,29.97,NNE,22,2.7,-999.0,57,-99.99,,,0.00,Acu-Link.com,2013-10-03 18:45:00,
2013-10-03 15:00:00,70.7,55.2,29.97,WNW,292,3.7,-999.0,58,-99.99,,,0.00,Acu-Link.com,2013-10-03 19:00:00,
2013-10-03 15:15:00,70.3,55.3,29.97,NW,315,2.7,-999.0,59,-99.99,,,0.00,Acu-Link.com,2013-10-03 19:15:00,
2013-10-03 15:31:00,70.2,55.2,29.96,NNE,22,2.7,-999.0,59,-99.99,,,0.00,Acu-Link.com,2013-10-03 19:31:00,
2013-10-03 15:46:00,70.2,55.7,29.96,NW,315,3.2,-999.0,60,-99.99,,,0.00,Acu-Link.com,2013-10-03 19:46:00,
2013-10-03 16:01:00,70.2,55.7,29.96,NW,315,2.7,-999.0,60,-99.99,,,0.00,Acu-Link.com,2013-10-03 20:01:00,
2013-10-03 16:16:00,69.8,55.3,29.96,NNW,337,1.1,-999.0,60,-99.99,,,0.00,Acu-Link.com,2013-10-03 20:16:00,
2013-10-03 16:32:00,69.6,55.1,29.96,West,270,2.2,-999.0,60,-99.99,,,0.00,Acu-Link.com,2013-10-03 20:32:00,
2013-10-03 16:47:00,69.3,55.7,29.96,NW,315,2.7,-999.0,62,-99.99,,,0.00,Acu-Link.com,2013-10-03 20:47:00,
2013-10-03 17:02:00,68.5,57.1,29.97,NW,315,2.7,-999.0,67,-99.99,,,0.00,Acu-Link.com,2013-10-03 21:02:00,
2013-10-03 17:17:00,67.6,57.5,29.97,NW,315,0.0,-999.0,70,-99.99,,,0.00,Acu-Link.com,2013-10-03 21:17:00,
2013-10-03 17:33:00,65.8,61.2,29.96,WNW,292,1.7,-999.0,85,-99.99,,,0.00,Acu-Link.com,2013-10-03 21:33:00,
2013-10-03 17:48:00,64.8,59.5,29.97,WNW,292,1.1,-999.0,83,-99.99,,,0.00,Acu-Link.com,2013-10-03 21:48:00,
2013-10-03 18:03:00,64.6,62.5,29.96,WNW,292,0.0,-999.0,93,-99.99,,,0.00,Acu-Link.com,2013-10-03 22:03:00,
2013-10-03 18:19:00,63.9,63.3,29.97,NW,315,0.0,-999.0,98,-99.99,,,0.00,Acu-Link.com,2013-10-03 22:19:00,
2013-10-03 18:34:00,62.8,62.2,29.98,SSW,202,0.0,-999.0,98,-99.99,,,0.00,Acu-Link.com,2013-10-03 22:34:00,
2013-10-03 18:49:00,62.1,61.5,29.99,NW,315,0.0,-999.0,98,-99.99,,,0.00,Acu-Link.com,2013-10-03 22:49:00,
2013-10-03 19:04:00,61.3,60.7,30.00,WNW,292,0.0,-999.0,98,-99.99,,,0.00,Acu-Link.com,2013-10-03 23:04:00,
2013-10-03 19:19:00,60.6,60.0,30.00,WNW,292,0.0,-999.0,98,-99.99,,,0.00,Acu-Link.com,2013-10-03 23:19:00,
2013-10-03 19:35:00,59.4,58.8,30.00,NNE,22,0.0,-999.0,98,-99.99,,,0.00,Acu-Link.com,2013-10-03 23:35:00,
2013-10-03 19:50:00,58.5,57.9,30.01,WNW,292,0.0,-999.0,98,-99.99,,,0.00,Acu-Link.com,2013-10-03 23:50:00,
2013-10-03 20:05:00,57.7,57.1,30.01,NW,315,0.0,-999.0,98,-99.99,,,0.00,Acu-Link.com,2013-10-04 00:05:00,
2013-10-03 20:20:00,56.7,56.1,30.01,NW,315,0.0,-999.0,98,-99.99,,,0.00,Acu-Link.com,2013-10-04 00:20:00,
2013-10-03 20:35:00,55.9,55.3,30.02,WNW,292,0.0,-999.0,98,-99.99,,,0.00,Acu-Link.com,2013-10-04 00:35:00,
2013-10-03 20:51:00,54.9,54.3,30.02,WNW,292,0.0,-999.0,98,-99.99,,,0.00,Acu-Link.com,2013-10-04 00:51:00,
2013-10-03 21:06:00,54.1,53.5,30.03,NW,315,0.0,-999.0,98,-99.99,,,0.00,Acu-Link.com,2013-10-04 01:06:00,
2013-10-03 21:21:00,53.4,52.8,30.03,NNE,22,0.0,-999.0,98,-99.99,,,0.00,Acu-Link.com,2013-10-04 01:21:00,
2013-10-03 21:36:00,52.5,52.0,30.03,ESE,112,0.0,-999.0,98,-99.99,,,0.00,Acu-Link.com,2013-10-04 01:36:00,
2013-10-03 21:51:00,52.0,51.5,30.03,East,90,0.0,-999.0,98,-99.99,,,0.00,Acu-Link.com,2013-10-04 01:51:00,
2013-10-03 22:07:00,51.4,50.9,30.04,East,90,0.0,-999.0,98,-99.99,,,0.00,Acu-Link.com,2013-10-04 02:07:00,
2013-10-03 22:22:00,50.9,50.4,30.04,East,90,0.0,-999.0,98,-99.99,,,0.00,Acu-Link.com,2013-10-04 02:22:00,
2013-10-03 22:37:00,50.4,49.9,30.04,East,90,0.0,-999.0,98,-99.99,,,0.00,Acu-Link.com,2013-10-04 02:37:00,
2013-10-03 22:52:00,49.8,49.3,30.04,East,90,0.0,-999.0,98,-99.99,,,0.00,Acu-Link.com,2013-10-04 02:52:00,
2013-10-03 23:08:00,49.3,48.8,30.03,East,90,0.0,-999.0,98,-99.99,,,0.00,Acu-Link.com,2013-10-04 03:08:00,
2013-10-03 23:23:00,48.7,48.2,30.04,North,0,0.0,-999.0,98,-99.99,,,0.00,Acu-Link.com,2013-10-04 03:23:00,
2013-10-03 23:38:00,48.4,47.9,30.04,WNW,292,0.0,-999.0,98,-99.99,,,0.00,Acu-Link.com,2013-10-04 03:38:00,
2013-10-03 23:53:00,48.2,47.7,30.04,East,90,0.0,-999.0,98,-99.99,,,0.00,Acu-Link.com,2013-10-04 03:53:00,